Probability
0 0 0 0 0 0 0 0 0 0 0 0 0 0 0 0 0 0 0 0 0 0 0 0 0 0 0 0 0 0 0 0 0 0 0 0 0 0 0 0 0 0 0 0
0 0 0 0 0 0 0 0 0 0 0 0 0 0 0 0 0 0 0 0 0 0 0 0 0 0 0 0 0 0 0 0 0 0 0 0 0 0 0 0 0 0 0 0
0 0 0 0 0 0 0 0 0 0 0 0 0 0 0 0 0 0 0 0 0 0 0 0 0 0 0 0 0 0 0 0 0 0 0 0 0 0 0 0 0 0 0 0
0 0 0 0 0 0 0 0 0 0 0 0 0 0 0 0 0 0 0 0 0 0 0 0 0 0 0 0 0 0 0 0 0 0 0 0 0 0 0 0 0 0 0 0
0 0 0 0 0 0 0 0 0 0 0 0 0 0 0 0 0 0 0 0 0 0 0 0 0 0 0 0 0 0 0 0 0 0 0 0 0 0 0 0 0 0 0 0
0 0 0 0 0 0 0 0 0 0 0 0 0 0 0 0 0 0 0 0 0 0 0 0 0 0 0 0 0 0 0 0 0 0 0 0 0 0 0 0 0 0 0 0
0 0 0 0 0 0 0 0 0 0 0 0 0 0 0 0 0 0 0 0 0 0 0 0 0 0 0 0 0 0 0 0 0 0 0 0 0 0 0 0 0 0 0 0
0 0 0 0 0 0 0 0 0 0 0 0 0 0 0 0 0 0 0 0 0 0 0 0 0 0 0 0 0 0 0 0 0 0 0 0 0 0 0 0 0 0 0 0
0 0 0 0 0 0 0 0 0 0 0 0 0 0 0 0 0 0 0 0 0 0 0 0 0 0 0 0 0 0 0 0 0 0 0 0 0 0 0 0 0 0 0 0
0 0 0 0 0 0 0 0 0 0 0 0 0 0 0 0 0 0 0 0 0 0 0 0 0 0 0 0 0 0 0 0 0 0 0 0 0 0 0 0 0 0 0 0
0 0 0 0 0 0 0 0 0 0 0 0 0 0 0 0 0 0 0 0 0 0 0 0 0 0 0 0 0 0 0 0 0 0 0 0 0 0 0 0 0 0 0 0
0 0 0 0 0 0 0 0 0 0 0 0 0 0 0 0 0 0 0 0 0 0 0 0 0 0 0 0 0 0 0 0 0 0 0 0 0 0 0 0 0 0 0 0
0 0 0 0 0 0 0 0 0 0 0 0 0 0 0 0 0 0 0 0 0 0 0 0 0 0 0 0 0 0 0 0 0 0 0 0 0 0 0 0 0 0 0 0
0 0 0 0 0 0 0 0 0 0 0 0 0 0 0 0 0 0 0 0 0 0 0 0 0 0 0 0 0 0 0 0 0 0 0 0 0 0 0 0 0 0 0 0
0 0 0 0 0 0 0 0 0 0 0 0 0 0 0 0 0 0 0 0 0 0 0 0 0 0 0 0 0 0 0 0 0 0 0 0 0 0 0 0 0 0 0 0
0 0 0 0 0 0 0 0 0 0 0 0 0 0 0 0 0 0 0 0 0 0 0 0 0 0 0 0 0 0 0 0 0 0 0 0 0 0 0 0 0 0 0 0
0 0 0 0 0 0 0 0 0 0 0 0 0 0 0 0 0 0 0 0 0 0 0 0 0 0 0 0 0 0 0 0 0 0 0 0 0 0 0 0 0 0 0 0
0 0 0 0 0 0 0 0 0 0 0 0 0 0 0 0 0 0 0 0 0 0 0 0 0 0 0 0 0 0 0 0 0 0 0 0 0 0 0 0 0 0 0 0
0 0 0 0 0 0 0 0 0 0 0 0 0 0 0 0 0 0 0 0 0 0 0 0 0 0 0 0 0 0 0 0 0 0 0 0 0 0 0 0 0 0 0 0
0 0 0 0 0 0 0 0 0 0 0 0 0 0 0 0 0 0 0 0 0 0 0 0 0 0 0 0 0 0 0 0 0 0 0 0 0 0 0 0 0 0 0 0
0 0 0 0 0 0 0 0 0 0 0 0 0 0 0 0 0 0 0 0 0 0 0 0 0 0 0 0 0 0 0 0 0 0 0 0 0 0 0 0 0 0 0 0
0 0 0 0 0 0 0 0 0 0 0 0 0 0 0 0 0 0 0 0 0 0 0 0 0 0 0 0 0 0 0 0 0 0 0 0 0 0 0 0 0 0 0 0
0 0 0 0 0 0 0 0 0 0 0 0 0 0 0 0 0 0 0 0 0 0 0 0 0 0 0 0 0 0 0 0 0 0 0 0 0 0 0 0 0 0 0 0
0 0 0 0 0 0 0 0 0 0 0 0 0 0 0 0 0 0 0 0 0 0 0 0 0 0 0 0 0 0 0 0 0 0 0 0 0 0 0 0 0 0 0 0
0 0 0 0 0 0 0 0 0 0 0 0 0 0 0 0 0 0 0 0 0 0 0 0 0 0 0 0 0 0 0 0 0 0 0 0 0 0 0 0 0 0 0 0
0 0 0 0 0 0 0 0 0 0 0 0 0 0 0 0 0 0 0 0 0 0 0 0 0 0 0 0 0 0 0 0 0 0 0 0 0 0 0 0 0 0 0 0
0 0 0 0 0 0 0 0 0 0 0 0 0 0 0 0 0 0 0 0 0 0 0 0 0 0 0 0 0 0 0 0 0 0 0 0 0 0 0 0 0 0 0 0
Height
5652 5651 5650 5648 5647 5646 5645 5644 5643 5643 5642 5641 5639 5637 5637 5635 5633 5632 5631 5630 5628 5628 5628 5628 5629 5630 5631 5632 5634 5636 5639 5641 5643 5645 5647 5649 5650 5652 5653 5654 5655 5655 5656 5657
5651 5649 5648 5646 5644 5642 5641 5639 5638 5637 5636 5634 5632 5630 5628 5626 5624 5622 5621 5619 5618 5618 5618 5618 5618 5619 5620 5621 5623 5625 5628 5630 5631 5633 5635 5637 5638 5640 5641 5642 5643 5644 5645 5646
5650 5648 5646 5645 5642 5639 5637 5635 5634 5632 5631 5627 5625 5622 5620 5618 5615 5613 5612 5610 5608 5608 5608 5608 5608 5609 5609 5610 5611 5614 5616 5618 5620 5622 5624 5625 5627 5628 5630 5631 5632 5633 5634 5635
5647 5646 5644 5644 5638 5636 5633 5631 5628 5625 5623 5620 5618 5615 5613 5610 5607 5605 5602 5601 5599 5598 5598 5598 5598 5598 5599 5599 5601 5602 5605 5607 5608 5610 5612 5614 5616 5617 5618 5620 5621 5622 5623 5624
5644 5642 5641 5639 5635 5631 5628 5626 5622 5619 5617 5614 5611 5608 5606 5602 5599 5596 5593 5591 5590 5589 5589 5588 5588 5588 5588 5589 5590 5592 5594 5596 5597 5599 5601 5603 5605 5606 5607 5609 5610 5611 5612 5613
5641 5638 5637 5636 5631 5626 5624 5621 5617 5613 5610 5607 5604 5602 5600 5595 5591 5588 5585 5583 5581 5580 5579 5579 5578 5578 5578 5579 5580 5581 5583 5585 5586 5588 5590 5592 5594 5595 5597 5598 5599 5601 5602 5602
5637 5635 5633 5631 5626 5622 5620 5617 5611 5607 5604 5600 5597 5594 5591 5586 5583 5579 5577 5575 5573 5571 5570 5569 5568 5568 5568 5569 5570 5571 5572 5574 5576 5577 5579 5581 5583 5584 5586 5588 5589 5590 5591 5592
5634 5631 5631 5626 5622 5618 5615 5609 5605 5601 5597 5593 5590 5586 5581 5577 5574 5571 5569 5566 5564 5562 5560 5559 5559 5559 5559 5559 5559 5560 5562 5563 5565 5566 5568 5570 5571 5573 5575 5577 5578 5579 5581 5582
5631 5630 5626 5621 5617 5613 5609 5604 5599 5595 5591 5586 5582 5578 5574 5569 5566 5562 5560 5558 5556 5554 5552 5551 5551 5550 5550 5550 5550 5550 5551 5552 5554 5556 5557 5559 5561 5562 5564 5566 5568 5569 5571 5572
5626 5624 5620 5616 5612 5608 5604 5599 5594 5589 5584 5580 5575 5571 5566 5562 5558 5555 5552 5550 5548 5547 5545 5544 5543 5542 5542 5541 5541 5541 5542 5542 5543 5545 5547 5548 5550 5552 5553 5555 5557 5559 5560 5562
5621 5618 5615 5611 5607 5603 5599 5594 5589 5584 5578 5573 5568 5563 5559 5555 5552 5549 5546 5543 5541 5540 5538 5537 5536 5535 5534 5533 5533 5533 5533 5533 5533 5535 5537 5539 5540 5542 5544 5545 5547 5549 5551 5552
5616 5613 5610 5607 5602 5598 5594 5589 5584 5579 5573 5567 5561 5556 5553 5549 5546 5543 5540 5538 5536 5534 5532 5531 5529 5528 5527 5526 5526 5526 5525 5525 5526 5527 5528 5530 5532 5533 5534 5536 5538 5539 5541 5542
5610 5607 5604 5601 5597 5593 5588 5583 5578 5573 5567 5561 5555 5550 5547 5544 5541 5538 5535 5532 5530 5528 5526 5524 5523 5521 5520 5519 5519 5518 5518 5518 5518 5519 5520 5522 5523 5524 5526 5527 5528 5530 5531 5532
5605 5602 5599 5595 5591 5587 5582 5577 5572 5567 5561 5555 5550 5545 5541 5538 5535 5532 5530 5527 5525 5522 5520 5518 5516 5515 5514 5513 5512 5512 5511 5511 5511 5511 5512 5514 5515 5516 5517 5518 5519 5520 5521 5522
5599 5596 5593 5589 5585 5581 5576 5571 5566 5560 5555 5549 5544 5539 5536 5532 5529 5527 5524 5521 5519 5517 5515 5513 5511 5509 5507 5506 5505 5505 5504 5504 5504 5504 5505 5505 5506 5507 5508 5509 5510 5511 5512 5513
5593 5590 5587 5583 5579 5574 5570 5565 5560 5554 5549 5543 5538 5533 5529 5526 5523 5520 5518 5515 5513 5511 5509 5507 5505 5503 5501 5500 5498 5497 5497 5497 5496 5497 5497 5497 5498 5498 5499 5500 5500 5501 5502 5503
5586 5583 5580 5576 5572 5567 5563 5558 5553 5548 5542 5537 5532 5527 5523 5519 5516 5513 5511 5508 5506 5504 5502 5500 5498 5496 5494 5493 5491 5490 5489 5489 5489 5489 5489 5489 5489 5490 5490 5490 5491 5492 5492 5493
5579 5576 5573 5569 5565 5561 5556 5551 5546 5541 5535 5530 5525 5521 5517 5513 5510 5507 5504 5502 5499 5497 5495 5493 5491 5489 5487 5485 5484 5483 5482 5482 5481 5481 5480 5480 5480 5481 5481 5481 5482 5482 5483 5483
5571 5569 5565 5562 5558 5553 5549 5544 5539 5534 5528 5523 5518 5514 5510 5506 5503 5500 5497 5495 5492 5490 5488 5485 5483 5481 5479 5478 5476 5475 5474 5473 5473 5472 5472 5471 5472 5472 5472 5472 5472 5472 5472 5473
5563 5561 5557 5554 5550 5546 5541 5536 5531 5526 5521 5516 5511 5507 5503 5499 5496 5493 5490 5487 5485 5482 5480 5478 5475 5473 5471 5470 5468 5467 5466 5465 5464 5463 5463 5462 5462 5462 5462 5462 5462 5462 5462 5462
5555 5553 5549 5546 5542 5537 5533 5528 5523 5518 5513 5508 5504 5499 5495 5492 5488 5485 5482 5479 5476 5474 5471 5469 5467 5465 5463 5461 5460 5458 5457 5456 5455 5454 5453 5453 5452 5452 5452 5452 5452 5452 5452 5452
5547 5544 5541 5537 5533 5529 5524 5519 5515 5510 5505 5500 5496 5491 5487 5484 5480 5476 5473 5470 5467 5465 5462 5460 5458 5456 5454 5453 5451 5449 5448 5447 5446 5445 5444 5443 5442 5442 5441 5441 5441 5441 5441 5441
5538 5535 5532 5528 5524 5520 5515 5511 5506 5501 5496 5492 5487 5483 5479 5475 5471 5468 5465 5461 5458 5455 5453 5451 5449 5447 5445 5443 5442 5440 5439 5437 5436 5435 5434 5433 5432 5431 5431 5431 5431 5430 5430 5430
5529 5526 5522 5519 5515 5511 5506 5501 5497 5492 5487 5483 5479 5475 5471 5467 5463 5459 5455 5452 5449 5446 5444 5442 5440 5438 5436 5434 5433 5431 5429 5428 5426 5425 5424 5423 5422 5421 5421 5420 5420 5420 5419 5419
5519 5516 5513 5509 5505 5501 5497 5492 5487 5483 5479 5474 5470 5466 5462 5458 5454 5450 5446 5443 5440 5437 5434 5432 5430 5428 5426 5425 5423 5422 5420 5418 5417 5415 5414 5413 5412 5411 5410 5410 5409 5409 5408 5408
5509 5506 5503 5500 5496 5492 5487 5483 5478 5474 5470 5465 5461 5457 5453 5449 5445 5441 5437 5434 5430 5427 5424 5422 5420 5418 5416 5415 5413 5412 5410 5409 5407 5406 5404 5403 5402 5401 5400 5399 5399 5398 5397 5397
5499 5496 5493 5490 5486 5482 5477 5473 5469 5464 5460 5456 5452 5447 5443 5439 5435 5431 5428 5424 5421 5418 5415 5413 5410 5408 5406 5405 5404 5402 5401 5400 5398 5397 5395 5393 5392 5391 5390 5389 5388 5387 5387 5386
Wind_Speed
8 9 9 9 11 13 15 17 18 19 21 23 25 26 27 29 30 32 33 34 35 36 36 37 39 41 43 44 45 46 47 48 48 48 48 48 48 48 48 48 47 47 47 46
9 11 11 11 13 14 15 17 18 20 21 24 26 27 27 28 29 30 32 33 34 36 36 37 38 40 42 43 45 45 45 46 47 47 47 47 47 47 47 47 47 46 45 45
10 11 12 13 15 15 16 17 19 20 22 24 26 27 27 28 29 30 31 31 33 34 35 37 37 38 39 41 43 44 44 44 44 44 45 45 46 46 46 46 46 45 45 45
12 13 14 16 17 18 18 19 21 22 23 25 26 27 28 29 30 30 30 31 32 33 33 34 36 37 38 38 39 40 41 42 43 43 43 43 42 42 43 44 43 43 43 43
14 15 16 19 20 20 21 20 22 23 24 25 26 26 27 29 30 30 30 30 30 31 33 33 34 35 36 37 38 38 39 40 41 41 42 42 41 41 40 40 41 41 41 41
15 17 18 20 22 22 23 21 23 24 24 26 27 27 27 29 29 29 29 29 29 30 31 32 34 34 35 36 37 37 38 38 39 40 40 40 41 40 39 39 39 39 39 39
16 17 19 21 23 24 24 24 25 25 26 26 27 28 29 29 29 29 29 29 29 30 30 31 32 33 34 34 35 36 37 37 38 39 39 39 39 39 39 38 38 37 37 37
17 18 20 22 24 25 26 26 26 26 26 27 28 29 30 29 28 28 29 28 28 29 29 29 29 30 31 32 33 33 34 36 36 37 37 38 38 38 38 37 36 36 36 36
18 20 21 23 24 25 27 28 28 27 27 28 29 30 30 30 29 28 28 28 28 27 27 27 28 28 29 29 30 31 33 34 35 35 35 36 36 36 36 36 36 36 35 35
19 21 23 24 26 27 28 29 30 30 29 30 30 30 29 29 28 27 27 26 27 26 26 26 26 27 27 28 28 29 30 31 32 33 33 33 34 34 34 35 35 34 34 34
20 22 23 25 27 28 28 30 31 31 31 32 31 29 28 27 27 26 26 25 25 25 25 24 25 26 26 26 27 27 28 28 28 29 29 30 31 32 31 31 32 32 32 33
21 23 24 26 28 29 29 30 31 32 33 32 31 29 27 26 25 25 24 24 24 23 23 24 24 24 24 25 25 26 27 27 27 28 28 28 29 29 30 30 31 31 31 32
22 24 25 27 28 30 30 31 32 34 34 33 31 28 27 26 25 24 24 23 22 23 23 24 24 24 24 24 24 25 25 26 26 27 27 27 28 28 29 29 30 31 31 31
23 25 26 28 29 30 31 32 33 34 34 33 31 28 27 26 25 24 24 23 22 22 23 23 22 22 23 23 24 24 24 24 25 26 27 28 29 29 29 30 30 31 31 31
24 26 27 29 30 31 32 33 34 35 35 33 32 29 27 26 25 25 25 24 23 23 22 22 22 22 22 23 23 24 24 24 25 26 27 28 28 29 29 30 30 30 31 31
26 27 28 29 31 32 33 34 35 35 35 34 32 29 28 27 26 26 25 25 24 24 23 23 23 23 23 23 23 23 24 24 25 25 26 27 28 28 29 29 30 31 31 32
27 28 29 30 31 33 33 34 35 35 35 34 32 30 28 27 26 26 26 26 25 25 24 24 24 25 24 24 23 23 24 24 25 26 27 27 28 28 29 29 30 31 31 32
28 29 30 31 32 33 34 35 35 35 35 34 32 30 29 28 27 26 26 26 26 25 25 25 25 25 25 24 24 24 24 24 25 26 26 27 28 29 29 30 30 31 31 32
29 30 31 32 33 34 35 36 36 36 35 35 33 31 29 28 27 27 26 26 26 26 27 27 27 26 25 25 25 25 25 25 26 26 26 27 28 28 29 29 30 30 31 31
31 31 32 33 34 35 36 36 37 36 35 35 34 32 30 29 29 28 28 28 28 28 28 28 27 27 26 26 26 25 25 26 26 26 27 28 28 29 29 29 29 30 30 31
31 32 33 34 35 36 36 37 37 37 36 35 34 32 31 30 30 30 30 30 30 29 28 28 27 27 27 27 27 27 27 27 27 27 28 28 29 29 29 30 30 30 31 31
32 33 34 35 36 36 37 38 38 37 36 35 34 33 32 31 32 32 32 31 31 30 29 28 28 27 27 27 27 27 28 28 28 28 28 29 29 29 29 29 30 30 31 31
33 34 35 37 37 37 38 38 38 38 36 35 35 34 33 33 33 33 33 32 31 31 30 29 29 29 28 28 28 28 28 28 28 29 29 28 28 29 29 29 29 30 30 30
34 35 37 37 38 38 38 38 38 38 36 36 35 35 34 34 34 34 33 32 32 32 31 31 30 30 29 29 29 29 29 29 29 28 28 28 28 28 28 29 29 30 30 31
35 36 37 37 38 38 38 38 38 37 37 36 36 36 35 35 34 34 33 33 33 32 32 31 31 31 30 30 29 29 29 29 29 28 28 28 28 28 29 29 30 30 31 31
35 36 37 37 38 38 38 38 38 38 37 37 37 37 37 36 35 34 33 33 33 32 31 31 31 30 30 30 29 29 28 28 28 27 27 27 28 28 29 30 30 30 31 31
36 37 37 38 38 38 39 39 38 38 38 38 38 38 38 36 35 34 34 33 32 32 31 30 29 29 29 28 28 28 27 27 27 27 27 27 27 27 28 28 28 29 30 30
Wind_Direction
341 339 334 324 311 300 293 289 288 285 282 282 280 278 278 278 276 275 273 271 268 264 262 260 258 257 257 256 256 255 255 256 257 257 259 260 261 262 263 265 266 267 267 268
336 336 334 327 320 310 301 295 292 290 287 286 286 283 282 283 281 279 276 274 270 266 264 262 261 259 258 257 256 255 256 256 257 258 259 260 262 263 264 265 266 267 267 268
333 331 332 331 324 314 306 302 297 295 291 288 289 289 287 286 285 283 280 276 272 268 266 265 264 262 261 260 258 257 257 257 258 259 260 261 262 263 264 265 265 266 266 268
326 327 329 331 328 319 308 303 301 300 297 294 292 292 292 290 289 287 284 279 273 268 266 266 266 265 264 262 260 259 258 258 258 259 260 261 263 264 264 264 264 265 266 268
322 325 328 330 329 323 317 309 306 301 299 297 297 296 294 293 292 290 287 283 278 273 269 267 267 267 266 264 262 260 259 259 259 259 260 261 262 264 263 263 264 265 266 268
319 323 327 328 328 326 322 317 312 308 304 301 300 300 297 294 293 292 289 286 283 278 274 271 269 268 267 266 264 261 259 258 259 260 260 261 261 262 263 264 265 266 266 268
318 322 327 328 329 328 325 322 318 312 308 305 304 305 303 298 295 294 290 288 286 282 279 275 271 270 269 268 265 263 261 260 261 261 261 261 261 261 262 263 265 265 266 267
318 322 324 327 328 328 327 326 322 318 315 310 308 307 306 303 299 294 290 289 289 287 282 277 274 273 272 270 267 265 265 263 262 262 262 262 261 261 261 262 263 264 264 266
317 319 321 325 326 327 328 328 326 322 319 315 311 310 308 304 301 297 292 290 291 290 285 280 277 276 274 273 270 267 266 264 262 262 262 261 260 260 260 261 262 263 264 265
314 317 319 322 324 326 328 329 329 325 321 318 314 313 310 307 304 301 297 294 292 290 288 283 279 277 276 274 272 269 267 265 262 261 260 258 257 260 260 260 260 262 263 264
311 314 317 320 323 325 327 328 329 327 323 320 318 313 310 308 306 303 300 296 293 291 288 285 282 278 276 274 272 270 268 267 263 261 260 258 258 259 260 260 260 261 262 264
309 312 316 319 322 324 326 327 327 327 324 321 318 315 312 309 308 307 303 299 296 293 290 288 284 281 278 274 272 271 271 267 263 261 259 258 259 260 261 261 261 261 263 264
308 312 315 319 321 323 324 325 326 327 326 322 318 314 312 310 307 306 304 300 297 295 294 292 288 284 280 275 272 272 271 268 263 260 259 258 260 260 260 260 261 262 264 265
307 310 314 317 319 321 323 324 325 327 327 325 321 314 311 308 305 303 303 301 298 297 296 295 292 288 284 279 276 275 273 269 265 261 260 260 262 262 261 261 262 263 264 265
304 308 312 316 319 320 322 323 325 326 326 325 322 316 312 307 304 301 301 299 298 298 298 297 294 291 288 284 280 276 273 270 266 265 264 264 264 263 263 263 264 264 264 265
303 308 312 315 318 319 320 323 324 324 324 324 322 318 314 309 304 300 300 299 299 298 297 295 294 294 291 287 282 277 274 271 269 267 266 266 265 265 264 264 264 264 264 265
303 307 311 314 317 318 320 322 323 323 322 322 320 317 314 311 306 302 299 298 299 298 297 294 293 294 292 289 284 279 275 272 272 271 268 268 267 266 265 265 265 265 265 265
301 306 310 313 315 317 319 321 322 322 321 321 318 314 312 309 305 303 300 298 298 297 296 295 294 293 291 288 285 281 278 276 275 273 271 269 268 267 266 266 266 266 266 267
301 305 309 311 313 315 318 320 321 320 320 319 317 313 310 307 304 302 300 299 298 297 295 294 293 293 290 288 285 283 280 278 277 276 273 271 270 269 268 268 267 267 268 268
300 304 307 310 312 314 316 317 318 318 317 317 316 312 309 306 304 302 300 297 297 297 297 294 293 291 289 289 287 284 281 280 279 277 275 273 272 271 270 269 268 268 269 270
300 303 306 308 311 313 314 315 316 316 316 315 314 312 309 306 304 302 300 298 296 295 295 294 293 291 289 288 286 284 282 281 280 280 278 275 273 272 271 270 269 270 271 271
299 303 305 307 310 311 312 313 314 315 314 313 312 311 309 306 304 303 302 299 296 294 293 292 291 292 291 289 287 285 284 282 281 281 280 278 275 274 272 271 271 271 272 272
298 302 304 306 308 309 310 312 313 313 312 312 311 309 308 306 305 303 302 300 296 293 291 291 290 290 289 288 287 287 287 286 284 282 280 278 277 275 274 273 272 272 272 272
297 301 303 306 307 308 310 311 311 312 311 310 310 309 307 306 304 303 301 300 297 294 292 290 289 288 288 287 287 287 287 287 286 284 281 279 277 276 275 273 272 272 273 273
297 300 303 305 306 308 309 310 310 310 310 310 310 309 307 305 304 303 302 300 298 296 293 290 288 288 287 286 286 286 287 287 287 285 283 280 278 277 276 275 275 274 274 274
297 299 301 303 305 307 308 309 309 308 308 308 308 308 306 305 304 303 303 302 300 297 294 292 289 288 286 285 285 286 287 287 288 287 285 282 281 280 278 277 276 275 274 274
295 298 300 302 304 306 307 308 308 308 308 308 307 306 305 304 302 302 302 301 300 298 296 294 292 290 288 286 286 286 286 288 289 289 287 285 284 283 281 280 279 277 276 275